GIOVE-A 1 28922U 05051A 10066.06764271 -.00000024 00000-0 10000-3 0 6572 2 28922 56.0888 150.4692 0009265 346.4707 13.5415 1.69474719 26027 GIOVE-B 1 32781U 08020A 10066.77958893 -.00000015 00000-0 10000-3 0 2826 2 32781 55.9304 185.1932 0018766 213.3436 146.5119 1.70950098 11635